This demonstration page uses our WeatherBlox Daily Observations layout. Learn more.

40.92945, -100.16068

Hourly Observations for October 22, 2019

Temp ( °F °C ) Dew Point ( °F °C ) Humidity (%) Winds ( mph kmh ) Pressure ( in mb ) Visibility ( mi km ) Precip ( " mm )
12:15 am 00:15 Clear 37 2.9 25 -3.8 62 62 WNW 13 20 30.06 1018 10 16.0934 0 0
12:35 am 00:35 Clear 37 3 25 -3.8 61 61 WNW 12 19 30.09 1019 10 16.0934 0 0
12:55 am 00:55 Clear 37 3 25 -3.8 61 61 WNW 12 19 30.09 1019 10 16.0934 0 0
1:15 am 01:15 Clear 37 3 25 -3.8 61 61 WNW 13 20 30.09 1019 10 16.0934 0 0
1:35 am 01:35 Clear 37 2.7 25 -3.8 63 63 WNW 10 17 30.09 1019 10 16.0934 0 0
1:55 am 01:55 Clear 37 2.5 25 -3.8 64 64 WNW 9 15 30.09 1019 10 16.0934 0 0
2:15 am 02:15 Clear 37 2.9 26 -3.5 63 63 WNW 12 19 30.09 1019 10 16.0934 0 0
2:35 am 02:35 Clear 38 3.1 27 -3 65 65 WNW 14 22 30.09 1019 10 16.0934 0 0
2:55 am 02:55 Clear 38 3.2 28 -2.5 67 67 WNW 13 20 30.09 1019 10 16.0934 0 0
3:15 am 03:15 Clear 38 3.4 28 -2.3 67 67 WNW 14 22 30.12 1020 10 16.0934 0 0
3:35 am 03:35 Clear 37 2.8 28 -2.2 70 70 WNW 12 19 30.12 1020 10 16.0934 0 0
3:55 am 03:55 Clear 37 2.9 28 -2.1 70 70 WNW 12 19 30.12 1020 10 16.0934 0 0
4:15 am 04:15 Clear 37 2.6 28 -2.1 71 71 NW 10 17 30.12 1020 10 16.0934 0 0
4:35 am 04:35 Clear 36 2.2 28 -2 74 74 NW 10 17 30.12 1020 10 16.0934 0 0
4:55 am 04:55 Clear 34 1.2 28 -2.2 78 78 NW 9 15 30.12 1020 10 16.0934 0 0
5:15 am 05:15 Clear 33 0.3 28 -2.5 82 82 NW 9 15 30.15 1021 10 16.0934 0 0
5:35 am 05:35 Clear 34 1.2 28 -2 79 79 NW 12 19 30.12 1020 10 16.0934 0 0
5:55 am 05:55 Clear 35 1.9 29 -1.8 77 77 NW 16 26 30.12 1020 10 16.0934 0 0
6:15 am 06:15 Clear 34 1.2 28 -2 79 79 WNW 12 19 30.12 1020 10 16.0934 0 0
6:35 am 06:35 Clear 33 0.8 28 -2 82 82 NW 13 20 30.15 1021 10 16.0934 0 0
6:55 am 06:55 Clear 34 1.3 29 -1.7 81 81 NW 16 26 30.12 1020 10 16.0934 0 0
7:15 am 07:15 Clear 34 1.3 29 -1.6 81 81 NW 15 24 30.12 1020 10 16.0934 0 0
7:35 am 07:35 Clear 35 1.4 29 -1.5 81 81 NW 14 22 30.12 1020 10 16.0934 0 0
7:55 am 07:55 Clear 34 1 29 -1.6 83 83 NW 10 17 30.12 1020 10 16.0934 0 0
8:15 am 08:15 Sunny 33 0.7 29 -1.7 84 84 NW 9 15 30.15 1021 10 16.0934 0 0
8:35 am 08:35 Sunny 34 1 29 -1.6 83 83 WNW 7 11 30.12 1020 10 16.0934 0 0
8:55 am 08:55 Sunny 35 1.5 30 -1.3 82 82 NW 5 7 30.12 1020 10 16.0934 0 0
9:15 am 09:15 Sunny 37 2.5 30 -1.1 77 77 NW 7 11 30.12 1020 10 16.0934 0 0
9:35 am 09:35 Sunny 39 3.7 31 -0.6 74 74 NW 8 13 30.12 1020 10 16.0934 0 0
9:55 am 09:55 Sunny 40 4.7 31 -0.8 68 68 WNW 13 20 30.09 1019 10 16.0934 0 0
10:15 am 10:15 Sunny 42 5.8 31 -0.5 64 64 WNW 13 20 30.09 1019 10 16.0934 0 0
10:35 am 10:35 Sunny 44 6.9 32 -0.2 61 61 WNW 15 24 30.09 1019 10 16.0934 0 0
10:55 am 10:55 Sunny 47 8.2 32 -0.1 56 56 WNW 15 24 30.06 1018 10 16.0934 0 0
11:15 am 11:15 Sunny 49 9.6 32 -0.1 51 51 WNW 20 31 30.06 1018 10 16.0934 0 0
11:35 am 11:35 Partly Cloudy 51 10.4 32 -0.2 48 48 WNW 16 26 30.03 1017 10 16.0934 0 0
11:55 am 11:55 Cloudy 53 11.9 31 -0.7 42 42 NW 20 31 30.03 1017 10 16.0934 0 0
12:15 pm 12:15 Cloudy 53 11.9 30 -1.1 41 41 NW 17 28 30.03 1017 10 16.0934 0 0
12:35 pm 12:35 Partly Cloudy 55 12.9 29 -1.5 37 37 WNW 16 26 30.03 1017 10 16.0934 0 0
12:55 pm 12:55 Sunny 55 13 29 -1.4 37 37 W 18 30 30.03 1017 10 16.0934 0 0
1:15 pm 13:15 Sunny 57 13.7 27 -3 32 32 WNW 20 31 30 1016 10 16.0934 0 0
1:35 pm 13:35 Sunny 57 14 28 -2.4 32 32 WNW 20 31 29.97 1015 10 16.0934 0 0
1:55 pm 13:55 Partly Cloudy 58 14.7 27 -2.9 30 30 WNW 29 46 29.97 1015 10 16.0934 0 0
2:15 pm 14:15 Mostly Cloudy 59 14.9 28 -2.3 31 31 WNW 20 31 29.94 1014 10 16.0934 0 0
2:35 pm 14:35 Cloudy 58 14.6 28 -2.5 31 31 WNW 16 26 29.94 1014 10 16.0934 0 0
2:55 pm 14:55 Mostly Cloudy 60 15.3 27 -2.9 29 29 WNW 18 30 29.94 1014 10 16.0934 0 0
3:15 pm 15:15 Mostly Cloudy 60 15.3 26 -3.5 27 27 WNW 20 31 29.94 1014 10 16.0934 0 0
3:35 pm 15:35 Mostly Cloudy 60 15.7 25 -3.7 26 26 WNW 22 35 29.91 1013 10 16.0934 0 0
3:55 pm 15:55 Mostly Cloudy 61 16 26 -3.5 26 26 WNW 26 43 29.88 1012 10 16.0934 0 0
4:15 pm 16:15 Partly Cloudy 61 16.1 26 -3.2 27 27 NW 20 31 29.88 1012 10 16.0934 0 0
4:35 pm 16:35 Partly Cloudy 60 15.7 26 -3.4 27 27 WNW 23 37 29.91 1013 10 16.0934 0 0
4:55 pm 16:55 Partly Cloudy 60 15.8 26 -3.1 27 27 WNW 17 28 29.91 1013 10 16.0934 0 0
5:15 pm 17:15 Partly Cloudy 60 15.8 27 -2.9 28 28 WNW 16 26 29.85 1011 10 16.0934 0 0
5:35 pm 17:35 Partly Cloudy 60 15.6 27 -2.6 29 29 WNW 16 26 29.85 1011 10 16.0934 0 0
5:55 pm 17:55 Sunny 60 15.4 28 -2.5 29 29 W 16 26 29.88 1012 10 16.0934 0 0
6:15 pm 18:15 Sunny 57 14.1 28 -2.5 32 32 WNW 9 15 29.88 1012 10 16.0934 0 0
6:35 pm 18:35 Sunny 54 12.1 29 -1.6 39 39 WNW 7 11 29.91 1013 10 16.0934 0 0
6:55 pm 18:55 Clear 52 11.1 29 -1.5 42 42 W 5 7 29.91 1013 7 11.26538 0 0
7:15 pm 19:15 Clear 52 10.9 28 -2 41 41 W 5 7 29.91 1013 10 16.0934 0 0
7:35 pm 19:35 Partly Cloudy 51 10.7 29 -1.9 42 42 WNW 5 7 29.88 1012 10 16.0934 0 0
7:55 pm 19:55 Cloudy 52 11.3 30 -1.2 42 42 WSW 9 15 29.91 1013 10 16.0934 0 0
8:15 pm 20:15 Cloudy 54 12 30 -1 41 41 WSW 6 9 29.91 1013 10 16.0934 0 0
8:35 pm 20:35 Cloudy 53 11.4 31 -0.5 44 44 SW 7 11 29.91 1013 10 16.0934 0 0
8:55 pm 20:55 Cloudy 56 13.2 31 -0.3 40 40 W 10 17 29.88 1012 10 16.0934 0 0
9:15 pm 21:15 Cloudy 56 13.5 33 0.8 42 42 W 10 17 29.88 1012 10 16.0934 0 0
9:35 pm 21:35 Cloudy with Light Rain 54 12 39 4.1 59 59 WNW 12 19 29.91 1013 10 16.0934 0 0
9:55 pm 21:55 Cloudy with Light Drizzle 54 12 40 4.6 61 61 NW 13 20 29.85 1011 10 16.0934 0 0
10:15 pm 22:15 Cloudy with Light Drizzle 53 11.6 41 4.9 64 64 NW 10 17 29.88 1012 10 16.0934 0 0
10:35 pm 22:35 Cloudy with Rain 52 11.2 43 6.2 72 72 WNW 12 19 29.91 1013 10 16.0934 0 0
10:55 pm 22:55 Cloudy with Rain 51 10.5 45 7.2 80 80 W 9 15 29.91 1013 10 16.0934 0.02 0.508
11:15 pm 23:15 Cloudy with Light Rain 52 10.9 46 7.6 80 80 W 10 17 29.88 1012 10 16.0934 0 0
11:35 pm 23:35 Cloudy with Drizzle 51 10.7 46 8 84 84 W 8 13 29.88 1012 10 16.0934 0 0
11:55 pm 23:55 Cloudy with Light Drizzle 51 10.5 46 8 85 85 SW 8 13 29.85 1011 10 16.0934 0.01 0.254

Powered by AerisWeather